Location: Newark
(4.9000°N, 36.4333°E)
Time: 14:28:42
(UTC+00:00)

ISS - Visible Passes

Search period start: 16 July 2019 00:00
Search period end: 26 July 2019 00:00
Orbit: 409 x 418 km, 51.6° (Epoch: 16 July)

Date Brightness Start Highest point End Pass type
(mag) Time Alt. Az. Time Alt. Az. Time Alt. Az.
16 Jul -3.5 16:12:22 10° SSW 16:15:35 46° SE 16:18:48 10° NE visible
17 Jul -0.4 17:01:03 10° W 17:02:51 14° NW 17:04:37 10° NNW visible
18 Jul -1.6 02:56:33 10° N 02:59:31 31° NE 03:02:28 10° ESE visible
18 Jul -1.5 16:10:32 10° WSW 16:13:33 31° NW 16:16:32 10° N visible
19 Jul -0.4 02:08:28 10° NNE 02:10:12 14° NE 02:11:57 10° E visible
20 Jul -3.5 02:54:17 10° NW 02:57:26 44° SW 03:00:36 10° SSE visible
21 Jul -3.4 02:05:59 19° NNW 02:08:09 64° NE 02:11:25 10° SE visible
